FW3914 Weather Reports


Display with metric or nautical units.
time (UTC)temp
F
wind
direction
speed
MPH
gust
MPH
rain 1hr
in
rain 24hr
in
rain mn
in
humidity
%
barometer
mb
20260906214256 101 283 4.0 7.0 0.00 0.00 0.00 40 1011.4
20260906213755 102 267 1.0 6.0 0.00 0.00 0.00 40 1011.3
20260906213255 102 269 3.0 11.0 0.00 0.00 0.00 41 1011.6
20260906212752 103 329 3.0 9.0 0.00 0.00 0.00 39 1011.4
20260906212248 102 3 3.0 6.0 0.00 0.00 0.00 40 1011.5
20260906211748 102 19 5.0 7.0 0.00 0.00 0.00 39 1011.9
20260906211243 102 226 2.0 9.0 0.00 0.00 0.00 40 1011.7
20260906210738 102 213 3.0 11.0 0.00 0.00 0.00 42 1011.6
20260906210233 102 285 3.0 7.0 0.00 0.00 0.00 41 1011.9
20260906205727 102 312 5.0 8.0 0.00 0.00 0.00 41 1012.2
20260906205225 101 258 3.0 7.0 0.00 0.00 0.00 40 1012.0
20260906204724 100 40 2.0 13.0 0.00 0.00 0.00 41 1012.1
20260906204223 99 305 1.0 4.0 0.00 0.00 0.00 41 1012.3
20260906203723 100 176 1.0 7.0 0.00 0.00 0.00 40 1012.5
20260906203218 100 249 3.0 6.0 0.00 0.00 0.00 45 1012.7
20260906202716 102 253 2.0 7.0 0.00 0.00 0.00 40 1012.5
20260906202215 101 44 0.0 5.0 0.00 0.00 0.00 40 1012.5
20260906201710 100 276 4.0 7.0 0.00 0.00 0.00 42 1012.5
20260906201209 100 1 3.0 7.0 0.00 0.00 0.00 42 1012.6
20260906200705 100 21 8.0 11.0 0.00 0.00 0.00 41 1012.7
20260906200201 99 1 3.0 9.0 0.00 0.00 0.00 44 1012.6
20260906195656 97 118 2.0 15.0 0.00 0.00 0.00 46 1013.0
20260906195153 99 296 4.0 7.0 0.00 0.00 0.00 45 1012.8
20260906194648 98 19 3.0 9.0 0.00 0.00 0.00 45 1012.9
20260906194143 99 24 3.0 8.0 0.00 0.00 0.00 44 1012.7
20260906193638 97 345 2.0 10.0 0.00 0.00 0.00 46 1012.9
20260906193133 100 29 3.0 7.0 0.00 0.00 0.00 44 1013.0
20260906192629 99 217 1.0 5.0 0.00 0.00 0.00 45 1013.1
20260906192128 98 9 5.0 7.0 0.00 0.00 0.00 46 1012.9
20260906191624 99 154 4.0 6.0 0.00 0.00 0.00 45 1013.2
20260906191123 98 209 3.0 8.0 0.00 0.00 0.00 46 1013.2
20260906190623 98 311 1.0 7.0 0.00 0.00 0.00 45 1013.3
20260906190117 98 337 4.0 7.0 0.00 0.00 0.00 46 1013.3
20260906185616 99 121 3.0 7.0 0.00 0.00 0.00 46 1013.2
20260906185116 99 295 2.0 4.0 0.00 0.00 0.00 46 1013.5
20260906184610 99 236 3.0 8.0 0.00 0.00 0.00 46 1013.4
20260906184106 99 274 3.0 12.0 0.00 0.00 0.00 46 1013.6
20260906183602 99 338 4.0 5.0 0.00 0.00 0.00 47 1013.6
20260906183057 100 337 2.0 10.0 0.00 0.00 0.00 46 1013.6
20260906182552 99 199 3.0 8.0 0.00 0.00 0.00 48 1013.5
20260906182048 99 11 3.0 5.0 0.00 0.00 0.00 47 1013.6
20260906181544 98 226 2.0 8.0 0.00 0.00 0.00 49 1013.8
20260906181039 98 238 0.0 7.0 0.00 0.00 0.00 48 1013.9
20260906180534 98 226 8.0 8.0 0.00 0.00 0.00 49 1014.1
20260906180033 98 255 2.0 7.0 0.00 0.00 0.00 51 1014.1
20260906175532 99 115 3.0 9.0 0.00 0.00 0.00 48 1014.4
20260906175032 97 230 5.0 9.0 0.00 0.00 0.00 51 1014.3
20260906174530 97 280 5.0 6.0 0.00 0.00 0.00 51 1014.1
20260906174026 96 24 1.0 6.0 0.00 0.00 0.00 51 1014.2
20260906173521 98 156 3.0 7.0 0.00 0.00 0.00 49 1014.5
20260906173017 95 209 3.0 5.0 0.00 0.00 0.00 54 1014.3
20260906172511 95 95 2.0 7.0 0.00 0.00 0.00 54 1014.5
20260906172006 96 252 2.0 7.0 0.00 0.00 0.00 55 1014.6
20260906171501 95 256 4.0 5.0 0.00 0.00 0.00 54 1014.7
20260906170956 95 253 2.0 7.0 0.00 0.00 0.00 53 1014.8
20260906170453 95 258 3.0 10.0 0.00 0.00 0.00 55 1014.8
20260906165949 95 267 4.0 7.0 0.00 0.00 0.00 56 1014.9
20260906165448 95 331 4.0 6.0 0.00 0.00 0.00 54 1014.7
20260906164943 95 23 4.0 8.0 0.00 0.00 0.00 55 1015.0
20260906164442 95 304 3.0 8.0 0.00 0.00 0.00 56 1015.0
20260906163939 95 229 3.0 7.0 0.00 0.00 0.00 56 1014.8
20260906163434 94 263 3.0 4.0 0.00 0.00 0.00 57 1015.0
20260906162932 94 38 3.0 6.0 0.00 0.00 0.00 57 1014.9
20260906162431 95 245 3.0 7.0 0.00 0.00 0.00 56 1014.8
20260906161926 94 304 1.0 7.0 0.00 0.00 0.00 55 1014.8
20260906161426 94 241 3.0 6.0 0.00 0.00 0.00 58 1014.7
20260906160925 93 221 2.0 7.0 0.00 0.00 0.00 57 1014.8
20260906160418 94 192 4.0 7.0 0.00 0.00 0.00 58 1014.8
20260906155916 92 355 3.0 8.0 0.00 0.00 0.00 60 1014.9
20260906155405 92 259 2.0 4.0 0.00 0.00 0.00 60 1015.1
20260906154901 92 51 1.0 5.0 0.00 0.00 0.00 61 1014.9
20260906154355 91 68 0.0 5.0 0.00 0.00 0.00 65 1014.9
20260906153854 91 322 1.0 4.0 0.00 0.00 0.00 66 1014.9
20260906153353 91 353 3.0 3.0 0.00 0.00 0.00 65 1014.7
20260906152849 91 327 3.0 6.0 0.00 0.00 0.00 68 1014.7
20260906152349 92 297 0.0 4.0 0.00 0.00 0.00 67 1014.8
20260906151848 91 256 3.0 5.0 0.00 0.00 0.00 70 1014.8
20260906151344 89 143 0.0 5.0 0.00 0.00 0.00 71 1014.6
20260906150840 89 60 0.0 6.0 0.00 0.00 0.00 71 1014.7
20260906150335 89 65 2.0 5.0 0.00 0.00 0.00 71 1014.4
20260906145834 88 284 3.0 5.0 0.00 0.00 0.00 73 1014.7
20260906145332 89 40 2.0 3.0 0.00 0.00 0.00 72 1014.7
20260906144828 88 316 0.0 3.0 0.00 0.00 0.00 73 1014.6
20260906144323 87 266 2.0 4.0 0.00 0.00 0.00 76 1014.9
20260906143822 88 319 2.0 4.0 0.00 0.00 0.00 74 1014.7
20260906143319 88 355 2.0 3.0 0.00 0.00 0.00 73 1014.8
20260906142814 88 344 1.0 6.0 0.00 0.00 0.00 75 1014.7
20260906142309 88 289 2.0 3.0 0.00 0.00 0.00 76 1014.8
20260906141809 86 117 0.0 3.0 0.00 0.00 0.00 77 1014.7
20260906141303 86 305 2.0 3.0 0.00 0.00 0.00 78 1014.8
20260906140801 86 197 2.0 3.0 0.00 0.00 0.00 79 1014.7
20260906140257 85 232 2.0 3.0 0.00 0.00 0.00 80 1014.6
20260906135754 86 6 2.0 3.0 0.00 0.00 0.00 79 1014.6
20260906135249 85 218 1.0 3.0 0.00 0.00 0.00 81 1014.6
20260906134745 84 41 2.0 3.0 0.00 0.00 0.00 82 1014.5
20260906134241 83 46 2.0 3.0 0.00 0.00 0.00 84 1014.4
20260906133736 83 32 0.0 3.0 0.00 0.00 0.00 84 1014.4
20260906133231 83 13 1.0 3.0 0.00 0.00 0.00 84 1014.4
20260906132726 83 255 0.0 2.0 0.00 0.00 0.00 85 1014.5
20260906132222 82 359 0.0 3.0 0.00 0.00 0.00 85 1014.5
20260906131718 82 321 0.0 1.0 0.00 0.00 0.00 85 1014.5
20260906131213 82 38 0.0 3.0 0.00 0.00 0.00 84 1014.5
20260906130708 82 284 0.0 3.0 0.00 0.00 0.00 85 1014.6
20260906130203 82 278 0.0 3.0 0.00 0.00 0.00 86 1014.3
20260906125701 80 320 0.0 2.0 0.00 0.00 0.00 89 1014.3
20260906125200 80 244 0.0 2.0 0.00 0.00 0.00 89 1014.5
20260906124655 79 344 0.0 2.0 0.00 0.00 0.00 90 1014.4
20260906124150 78 314 1.0 2.0 0.00 0.00 0.00 92 1014.1
20260906123649 78 351 0.0 2.0 0.00 0.00 0.00 93 1014.2
20260906123145 77 301 1.0 2.0 0.00 0.00 0.00 93 1013.9
20260906122644 77 293 0.0 2.0 0.00 0.00 0.00 93 1014.0
20260906122139 77 35 0.0 2.0 0.00 0.00 0.00 93 1014.1
20260906121636 77 324 0.0 2.0 0.00 0.00 0.00 93 1013.9
20260906121132 77 242 1.0 3.0 0.00 0.00 0.00 93 1013.9
20260906120628 77 234 0.0 1.0 0.00 0.00 0.00 93 1013.7
20260906120125 77 293 0.0 2.0 0.00 0.00 0.00 93 1014.0
20260906115625 77 150 0.0 1.0 0.00 0.00 0.00 93 1013.6
20260906115120 77 305 0.0 2.0 0.00 0.00 0.00 93 1013.8
20260906114614 77 109 0.0 2.0 0.00 0.00 0.00 93 1013.8
20260906114109 77 302 0.0 2.0 0.00 0.00 0.00 93 1013.9
20260906113609 78 299 0.0 1.0 0.00 0.00 0.00 93 1013.7
20260906113104 78 217 0.0 1.0 0.00 0.00 0.00 93 1013.8
20260906112603 78 297 0.0 0.0 0.00 0.00 0.00 93 1013.5
20260906112100 78 230 0.0 2.0 0.00 0.00 0.00 92 1013.6
20260906111559 78 251 0.0 2.0 0.00 0.00 0.00 92 1013.6
20260906111055 78 246 0.0 2.0 0.00 0.00 0.00 92 1013.7
20260906110554 78 242 0.0 1.0 0.00 0.00 0.00 92 1013.3
20260906110054 78 297 0.0 2.0 0.00 0.00 0.00 91 1013.5
20260906105549 78 212 0.0 1.0 0.00 0.00 0.00 91 1013.4
20260906105045 78 293 0.0 1.0 0.00 0.00 0.00 91 1013.4
20260906104543 78 253 0.0 2.0 0.00 0.00 0.00 92 1013.5
20260906104038 78 242 0.0 2.0 0.00 0.00 0.00 91 1013.4
20260906103536 78 314 1.0 2.0 0.00 0.00 0.00 91 1013.5
20260906103032 78 233 0.0 1.0 0.00 0.00 0.00 90 1013.5
20260906102531 78 264 0.0 2.0 0.00 0.00 0.00 90 1013.4
20260906102027 78 326 0.0 1.0 0.00 0.00 0.00 90 1013.4
20260906101521 78 269 0.0 2.0 0.00 0.00 0.00 90 1013.3
20260906101016 78 266 0.0 3.0 0.00 0.00 0.00 90 1013.3
20260906100512 78 229 1.0 2.0 0.00 0.00 0.00 90 1013.2
20260906100006 78 217 1.0 3.0 0.00 0.00 0.00 90 1013.3
20260906095501 78 260 0.0 2.0 0.00 0.00 0.00 90 1013.3
20260906094956 78 286 1.0 2.0 0.00 0.00 0.00 90 1013.1
20260906094455 78 149 0.0 2.0 0.00 0.00 0.00 90 1013.1
20260906093951 78 283 0.0 2.0 0.00 0.00 0.00 90 1013.1
20260906093447 78 237 1.0 3.0 0.00 0.00 0.00 90 1012.8
20260906092942 78 327 0.0 2.0 0.00 0.00 0.00 89 1012.7
20260906092442 78 256 0.0 3.0 0.00 0.00 0.00 89 1012.7
20260906091937 78 271 1.0 2.0 0.00 0.00 0.00 89 1012.7
20260906091433 78 249 1.0 3.0 0.00 0.00 0.00 89 1012.8
20260906090929 79 215 2.0 3.0 0.00 0.00 0.00 89 1012.6
20260906090424 79 185 0.0 3.0 0.00 0.00 0.00 89 1012.9
20260906085918 79 297 0.0 2.0 0.00 0.00 0.00 88 1012.8
20260906085412 79 241 0.0 3.0 0.00 0.00 0.00 88 1012.7
20260906084911 79 231 1.0 3.0 0.00 0.00 0.00 88 1012.7
20260906084406 79 224 2.0 3.0 0.00 0.00 0.00 88 1012.6
20260906083905 79 201 2.0 4.0 0.00 0.00 0.00 88 1012.3
20260906083401 79 265 2.0 3.0 0.00 0.00 0.00 88 1012.6
20260906082900 79 165 2.0 4.0 0.00 0.00 0.00 88 1012.5
20260906082355 79 190 1.0 3.0 0.00 0.00 0.00 87 1012.6
20260906081852 79 184 0.0 7.0 0.00 0.00 0.00 87 1012.7
20260906081347 79 155 0.0 3.0 0.00 0.00 0.00 87 1012.8
20260906080843 80 198 2.0 3.0 0.00 0.00 0.00 87 1012.7
20260906080339 80 206 2.0 3.0 0.00 0.00 0.00 87 1013.2
20260906075838 80 198 1.0 6.0 0.00 0.00 0.00 86 1012.7
20260906075333 80 272 1.0 3.0 0.00 0.00 0.00 86 1013.1
20260906074829 80 205 2.0 3.0 0.00 0.00 0.00 86 1012.9
20260906074328 80 260 2.0 4.0 0.00 0.00 0.00 85 1012.9
20260906073827 80 81 0.0 3.0 0.00 0.00 0.00 85 1013.0
20260906073322 80 172 2.0 4.0 0.00 0.00 0.00 85 1012.9
20260906072818 80 183 2.0 3.0 0.00 0.00 0.00 84 1012.8
20260906072314 80 144 2.0 3.0 0.00 0.00 0.00 84 1012.9
20260906071810 81 181 0.0 3.0 0.00 0.00 0.00 83 1013.0
20260906071304 81 177 2.0 3.0 0.00 0.00 0.00 83 1012.7
20260906070801 81 177 1.0 3.0 0.00 0.00 0.00 83 1012.9
20260906070256 81 243 2.0 2.0 0.00 0.00 0.00 83 1012.8
20260906065756 81 237 0.0 2.0 0.00 0.00 0.00 83 1012.9
20260906065251 81 259 1.0 3.0 0.00 0.00 0.00 83 1013.1
20260906064747 81 215 3.0 5.0 0.00 0.00 0.00 83 1013.0
20260906064243 81 209 3.0 5.0 0.00 0.00 0.00 82 1012.9
20260906063737 81 247 1.0 3.0 0.00 0.00 0.00 82 1013.0
20260906063233 81 157 1.0 4.0 0.00 0.00 0.00 82 1013.0
20260906062728 81 159 3.0 4.0 0.00 0.00 0.00 81 1012.9
20260906062227 81 226 0.0 4.0 0.00 0.00 0.00 81 1013.0
20260906061723 81 231 1.0 5.0 0.00 0.00 0.00 81 1013.0
20260906061219 82 230 2.0 4.0 0.00 0.00 0.00 80 1013.1
20260906060714 82 180 3.0 5.0 0.00 0.00 0.00 79 1013.2
20260906060212 82 300 1.0 5.0 0.00 0.00 0.00 79 1013.1
20260906055707 82 187 2.0 5.0 0.00 0.00 0.00 78 1013.4
20260906055203 82 123 0.0 8.0 0.00 0.00 0.00 77 1013.2
20260906054657 82 206 0.0 4.0 0.00 0.00 0.00 77 1013.2
20260906054152 82 344 0.0 3.0 0.00 0.00 0.00 77 1013.5
20260906053649 83 191 0.0 2.0 0.00 0.00 0.00 76 1013.1
20260906053144 83 249 1.0 3.0 0.00 0.00 0.00 76 1013.1
20260906052639 83 225 2.0 3.0 0.00 0.00 0.00 76 1013.1
20260906052136 83 228 2.0 5.0 0.00 0.00 0.00 76 1013.1
20260906051632 83 177 2.0 5.0 0.00 0.00 0.00 76 1013.0
20260906051131 83 218 0.0 6.0 0.00 0.00 0.00 75 1013.1
20260906050627 83 171 3.0 4.0 0.00 0.00 0.00 75 1013.3
20260906050122 83 191 2.0 3.0 0.00 0.00 0.00 74 1012.8
20260906045620 84 203 2.0 4.0 0.00 0.00 0.00 74 1012.8
20260906045116 84 212 1.0 3.0 0.00 0.00 0.00 74 1012.7
20260906044612 84 221 1.0 4.0 0.00 0.00 0.00 74 1012.9
20260906044107 84 222 3.0 4.0 0.00 0.00 0.00 74 1012.9
20260906043603 84 246 2.0 4.0 0.00 0.00 0.00 74 1013.2
20260906043058 84 222 2.0 7.0 0.00 0.00 0.00 74 1012.7
20260906042557 84 153 2.0 4.0 0.00 0.00 0.00 74 1013.2
20260906042052 84 238 2.0 3.0 0.00 0.00 0.00 75 1013.0
20260906041548 84 258 1.0 5.0 0.00 0.00 0.00 74 1013.1
20260906041043 84 250 1.0 4.0 0.00 0.00 0.00 74 1013.2
20260906040538 84 151 2.0 4.0 0.00 0.00 0.00 74 1013.3
20260906040034 84 269 0.0 4.0 0.00 0.00 0.00 74 1013.0
20260906035529 85 203 2.0 3.0 0.00 0.00 0.00 74 1013.2
20260906035025 85 187 2.0 3.0 0.00 0.00 0.00 74 1013.4
20260906034524 85 200 3.0 5.0 0.00 0.00 0.00 73 1012.9
20260906034019 85 149 1.0 5.0 0.00 0.00 0.00 73 1013.2
20260906033514 85 214 2.0 7.0 0.00 0.00 0.00 73 1012.8
20260906033010 85 180 2.0 3.0 0.00 0.00 0.00 73 1013.0
20260906032506 85 255 2.0 4.0 0.00 0.00 0.00 73 1013.0
20260906032001 85 199 0.0 3.0 0.00 0.00 0.00 73 1013.1
20260906031456 86 263 0.0 6.0 0.00 0.00 0.00 72 1012.9
20260906030951 86 195 4.0 5.0 0.00 0.00 0.00 72 1012.9
20260906030446 86 213 1.0 4.0 0.00 0.00 0.00 71 1013.2
20260906025946 86 199 3.0 5.0 0.00 0.00 0.00 71 1013.0
20260906025440 86 197 4.0 5.0 0.00 0.00 0.00 70 1013.1
20260906024939 86 210 2.0 5.0 0.00 0.00 0.00 70 1013.0
20260906024438 86 227 0.0 3.0 0.00 0.00 0.00 70 1013.0
20260906023933 86 216 3.0 5.0 0.00 0.00 0.00 69 1013.0
20260906023430 86 246 2.0 4.0 0.00 0.00 0.00 69 1012.9
20260906022924 86 180 2.0 3.0 0.00 0.00 0.00 69 1012.7
20260906022419 86 259 3.0 5.0 0.00 0.00 0.00 68 1012.6
20260906021915 86 224 2.0 5.0 0.00 0.00 0.00 68 1012.6
20260906021414 87 218 0.0 7.0 0.00 0.00 0.00 68 1012.5
20260906020909 87 207 2.0 5.0 0.00 0.00 0.00 67 1012.5
20260906020403 87 271 1.0 4.0 0.00 0.00 0.00 66 1012.5
20260906015858 87 252 1.0 5.0 0.00 0.00 0.00 66 1012.3
20260906015357 87 211 2.0 5.0 0.00 0.00 0.00 66 1012.1
20260906014857 87 232 1.0 6.0 0.00 0.00 0.00 65 1012.5
20260906014357 87 245 1.0 4.0 0.00 0.00 0.00 64 1012.3
20260906013853 88 222 2.0 5.0 0.00 0.00 0.00 65 1012.2
20260906013349 88 247 1.0 10.0 0.00 0.00 0.00 63 1012.1
20260906012844 88 222 4.0 6.0 0.00 0.00 0.00 63 1012.0
20260906012339 88 244 3.0 6.0 0.00 0.00 0.00 63 1012.1
20260906011838 88 218 4.0 6.0 0.00 0.00 0.00 62 1011.9
20260906011333 89 262 2.0 9.0 0.00 0.00 0.00 62 1011.8
20260906010829 89 288 2.0 4.0 0.00 0.00 0.00 61 1011.8
20260906010325 89 186 3.0 11.0 0.00 0.00 0.00 61 1011.8
20260906005820 90 312 4.0 11.0 0.00 0.00 0.00 60 1011.7
20260906005319 91 262 4.0 10.0 0.00 0.00 0.00 59 1011.6
20260906004819 91 238 2.0 14.0 0.00 0.00 0.00 57 1011.4
20260906004318 92 301 3.0 7.0 0.00 0.00 0.00 55 1011.2
20260906003814 93 333 3.0 6.0 0.00 0.00 0.00 53 1011.3
20260906003309 94 328 4.0 13.0 0.00 0.00 0.00 53 1011.4
20260906002805 94 257 3.0 8.0 0.00 0.00 0.00 52 1011.5
20260906002306 95 296 3.0 8.0 0.00 0.00 0.00 51 1011.2
20260906001800 96 267 2.0 7.0 0.00 0.00 0.00 50 1011.2
20260906001254 97 279 3.0 6.0 0.00 0.00 0.00 47 1011.3
20260906000749 98 289 2.0 6.0 0.00 0.00 0.00 44 1011.3
20260906000244 98 254 3.0 5.0 0.00 0.00 0.00 44 1011.1
20260905235739 100 239 0.0 5.0 0.00 0.00 0.00 42 1011.1
20260905235238 100 278 2.0 4.0 0.00 0.00 0.00 42 1011.2
20260905234734 100 308 2.0 5.0 0.00 0.00 0.00 41 1011.0
20260905234230 101 171 3.0 6.0 0.00 0.00 0.00 41 1011.0
20260905233725 101 180 3.0 5.0 0.00 0.00 0.00 41 1010.8
20260905233224 100 25 2.0 5.0 0.00 0.00 0.00 42 1010.6
20260905232719 102 233 2.0 4.0 0.00 0.00 0.00 40 1010.7
20260905232215 102 293 2.0 7.0 0.00 0.00 0.00 40 1010.9
20260905231710 103 332 0.0 4.0 0.00 0.00 0.00 39 1011.0
20260905231206 102 206 2.0 6.0 0.00 0.00 0.00 40 1011.0
20260905230702 102 279 0.0 5.0 0.00 0.00 0.00 40 1011.2
20260905230159 104 227 3.0 6.0 0.00 0.00 0.00 39 1011.2
20260905225659 101 268 1.0 6.0 0.00 0.00 0.00 41 1011.1
20260905225154 103 250 8.0 9.0 0.00 0.00 0.00 41 1010.7
20260905224654 103 247 3.0 4.0 0.00 0.00 0.00 40 1011.0
20260905224148 103 247 3.0 6.0 0.00 0.00 0.00 40 1010.8
20260905223645 103 244 4.0 7.0 0.00 0.00 0.00 40 1010.9
20260905223141 105 230 3.0 7.0 0.00 0.00 0.00 38 1011.0
20260905222637 104 245 3.0 4.0 0.00 0.00 0.00 39 1010.9
20260905222131 105 265 2.0 5.0 0.00 0.00 0.00 38 1010.8
20260905221627 104 204 3.0 5.0 0.00 0.00 0.00 38 1010.8
20260905221124 104 341 2.0 5.0 0.00 0.00 0.00 38 1011.0
20260905220619 102 239 3.0 6.0 0.00 0.00 0.00 40 1011.1
20260905220115 102 334 2.0 5.0 0.00 0.00 0.00 40 1011.1
20260905215614 103 305 3.0 4.0 0.00 0.00 0.00 39 1011.4
20260905215110 101 0 3.0 5.0 0.00 0.00 0.00 40 1011.4
20260905214606 101 225 1.0 4.0 0.00 0.00 0.00 41 1011.2